Retour au catalogue

STARLINK-3350

ActifCommunicationsVLEO
NORAD 51105·PAYLOAD·🇺🇸 United States

Lancé Jan 19, 2022 depuis Cape Canaveral Space Force Station

Loading…

Prochains Passages (prochaines 24 heures)

TLE

FraisSource: CelesTrak SupGP

Époque: Sep 15, 2026, 01:12 UTC

1 51105C 22005B   26258.05048611  .00014098  00000+0  40342-3 0  2584
2 51105  53.1577 151.0372 0001283  83.8798 233.1212 15.35387016    12

Suivez STARLINK-3350 en temps réel avec AllMySat

Download on the App Store